SCP
0 0 0 0 0 0 0 0 0 0 0 0 0 0 0 0 0 0 0 0 0 0 0 0 0 0 0 0 0 0 0 0 0 0 0 0 0 0 0 0 0 0 0 0
0 0 0 0 0 0 0 0 0 0 0 0 0 0 0 0 0 0 0 0 0 0 0 0 0 0 0 0 0 0 0 0 0 0 0 0 0 0 0 0 0 0 0 0
0 0 0 0 0 0 0 0 0 0 0 0 0 0 0 0 0 0 0 0 0 0 0 0 0 0 0 0 0 0 0 0 0 0 0 0 0 0 0 0 0 0 0 0
0 0 0 0 0 0 0 0 0 0 0 0 0 0 0 0 0 0 0 0 0 0 0 0 0 0 0 0 0 0 0 0 0 0 0 0 0 0 0 0 0 0 0 0
0 0 0 0 0 0 0 0 0 0 0 0 0 0 0 0 0 0 0 0 0 0 0 0 0 0 0 0 0 0 0 0 0 0 0 0 0 0 0 0 0 0 0 0
0 0 0 0 0 0 0 0 0 0 0 0 0 0 0 0 0 0 0 0 0 0 0 0 0 0 0 0 0 0 0 0 0 0 0 0 0 0 0 0 0 0 0 0
0 0 0 0 0 0 0 0 0 0 0 0 0 0 0 0 0 0 0 0 0 0 0 0 0 0 0 0 0 0 0 0 0 0 0 0 0 0 0 0 0 0 0 0
0 0 0 0 0 0 0 0 0 0 0 0 0 0 0 0 0 0 0 0 0 0 0 0 0 0 0 0 0 0 0 0 0 0 0 0 0 0 0 0 0 0 0 0
0 0 0 0 0 0 0 0 0 0 0 0 0 0 0 0 0 0 0 0 0 0 0 0 0 0 0 0 0 0 0 0 0 0 0 0 0 0 0 0 0 0 0 0
0 0 0 0 0 0 0 0 0 0 0 0 0 0 0 0 0 0 0 0 0 0 0 0 0 0 0 0 0 0 0 0 0 0 0 0 0 0 0 0 0 0 0 0
-0 0 0 0 0 0 0 0 -0 0 0 0 0 0 0 0 0 0 0 0 0 0 0 0 0 0 0 0 0 0 0 0 0 0 0 0 0 0 0 0 0 0 0 0
0 0 0 0 0 0 0 0 0 0 0 0 0 0 0 0 0 0 0 0 0 0 0 0 0 0 0 0 0 0 0 0 0 0 0 0 0 0 0 0 0 0 0 0
0 0 0 0 0 0 0 0 0 0 0 0 0 0 0 0 0 0 -0 -0 0 0 0 0 0 0 0 0 0 0 0 0 0 0 0 0 0 0 0 0 0 0 0 0
0 0 0 0 0 0 0 0 0 0 0 0 0 0 0 0 0 0 0 -0 0 0 0 0 0 0 0 0 0 0 0 0 0 0 0 0 0 0 0 0 0 0 0 0
0 0 0 0 0 0 0 0 0 0 0 0 0 0 0 0 0 0 0 0 0 0 0 0 0 0 0 0 0 0 0 0 0 0 0 0 0 0 0 0 0 0 0 0
0 0 0 0 0 0 -0 0 0 0 0 0 0 0 0 0 0 0 0 0 0 0 0 0 0 0 0 0 0 0 0 0 0 0 0 0 0 0 0 0 0 0 0 0
0 0 0 0 0 0 0 0 0 0 0 0 0 0 0 0 0 0 0 0 0 0 0 0 0 0 0 0 0 0 0 0 0 0 0 0 0 0 0 0 0 0 0 0
0 0 0 0 0 0 0 0 0 0 0 0 0 0 0 0 0 0 0 0 0 0 0 0 0 0 0 0 0 0 0 0 0 0 0 0 0 0 0 0 0 0 0 0
0 0 0 0 0 0 0 0 0 0 0 0 0 0 0 0 0 0 0 0 0 0 0 0 0 0 0 0 0 0 0 0 0 0 0 0 0 0 0 0 0 0 0 0
0 0 0 0 0 0 0 0 0 0 0 0 0 0 0 0 0 0 0 0 0 0 0 0 0 0 0 0 0 0 0 0 0 0 0 0 0 0 0 0 0 0 0 0
0 0 0 0 0 0 0 0 0 0 0 0 0 0 0 0 0 0 0 0 0 0 0 0 0 0 0 0 0 0 0 0 0 0 0 0 0 0 0 0 0 0 0 0
-0 -0 0 0 0 0 0 0 0 0 0 0 0 0 0 0 0 0 0 0 0 0 0 0 0 0 0 0 0 0 0 0 0 0 0 0 0 0 0 0 0 0 0 0
-0 -0 0 0 0 0 0 0 0 0 0 0 0 0 0 0 0 0 0 0 0 0 0 0 0 0 0 0 0 0 0 0 0 -0 0 0 0 0 0 0 0 0 0 0
-0 0 0 0 0 0 0 0 0 0 0 0 0 0 0 0 0 0 0 0 0 0 0 0 0 0 0 0 0 0 0 0 0 -0 0 0 0 0 0 0 0 0 0 0
0 0 0 0 0 0 0 0 0 0 0 0 0 0 0 0 0 0 0 0 0 0 0 0 0 0 0 0 0 0 0 0 -0 -0 -0 0 0 0 0 0 0 0 0 0
0 0 0 0 0 0 0 0 0 0 0 0 0 0 0 0 0 0 0 0 0 0 0 0 0 0 0 0 0 0 0 0 0 0 0 0 0 0 0 0 0 0 0 0
0 0 0 0 0 0 0 0 0 0 0 0 0 0 0 0 0 0 0 0 0 0 0 0 0 0 0 0 0 0 0 0 0 0 0 0 0 0 0 0 0 0 0 0
Wind_Speed
8 7 4 7 7 5 6 7 8 9 9 10 8 8 7 6 5 5 5 5 4 4 4 4 4 3 3 3 3 3 2 2 2 2 2 2 2 2 2 2 2 2 2 2
6 4 5 8 9 8 8 7 9 10 12 8 7 4 5 5 4 5 5 5 4 4 4 4 4 4 4 4 4 3 2 3 2 2 1 2 2 2 1 2 2 2 2 2
4 3 3 8 8 8 6 7 7 10 10 5 5 5 5 4 4 5 6 5 4 4 4 4 4 4 4 4 3 2 2 2 2 2 2 2 2 1 2 2 2 2 2 2
3 3 6 8 2 5 6 6 7 7 5 4 5 6 4 3 3 4 5 5 4 4 4 5 4 4 3 3 2 2 2 2 3 2 3 2 2 2 2 2 2 2 2 2
1 3 9 6 2 3 4 6 5 6 6 4 3 4 4 2 2 3 4 4 4 4 4 4 4 4 3 3 3 3 3 3 3 2 2 2 2 3 3 2 2 2 2 2
2 3 8 6 2 1 1 5 2 3 4 3 1 3 5 3 3 4 4 3 4 4 4 4 5 4 3 3 3 4 4 4 3 2 2 2 3 2 2 1 1 1 2 2
5 6 10 4 1 1 2 6 3 2 3 2 3 5 4 3 3 3 3 4 4 3 3 4 4 3 3 3 4 4 4 4 3 3 2 2 2 1 1 1 1 1 2 2
5 5 10 1 3 4 5 3 2 3 3 3 5 4 3 3 3 3 3 4 4 3 4 4 4 3 4 5 5 4 3 3 3 3 3 2 1 1 1 1 1 1 1 2
8 8 2 3 4 3 1 2 3 3 4 3 4 4 4 3 3 3 3 4 3 3 4 5 4 3 4 5 5 4 3 3 3 4 3 2 1 1 1 0 1 1 1 2
5 7 4 4 4 2 2 3 4 4 3 3 4 4 4 4 3 3 3 3 3 3 4 5 5 4 4 5 4 3 3 3 3 3 3 2 2 2 1 1 1 2 2 2
6 5 4 4 5 4 4 3 4 4 3 3 3 4 4 3 3 3 3 3 3 3 4 5 5 5 5 4 3 3 3 3 3 2 2 2 2 2 2 2 2 3 2 2
7 4 4 6 4 3 3 4 4 3 4 4 3 4 3 3 3 3 3 3 3 4 4 5 5 5 5 4 2 2 2 2 2 2 2 2 2 2 4 4 5 5 5 4
6 4 4 5 4 2 3 4 3 3 4 4 3 3 3 3 3 3 3 3 4 4 4 5 4 5 5 3 2 2 2 2 2 2 2 2 2 2 2 3 4 5 5 5
4 2 3 3 3 3 3 3 2 3 3 3 2 2 2 2 3 3 3 4 4 4 4 4 4 4 4 3 3 2 2 3 3 2 2 2 2 2 2 2 2 3 4 5
3 3 4 4 2 2 1 1 1 2 3 3 2 2 2 3 3 4 4 3 3 4 4 4 3 4 4 3 3 3 2 2 2 2 2 2 2 2 1 2 2 2 2 3
4 3 2 2 2 2 1 1 2 3 3 3 3 3 3 3 3 4 4 3 3 4 4 4 4 4 3 2 3 2 2 3 3 2 2 2 1 1 1 1 1 1 2 2
2 3 3 3 4 3 3 3 3 3 3 3 3 3 3 3 3 4 4 4 3 4 4 4 5 4 3 2 2 2 2 3 4 2 2 2 1 2 1 1 1 1 1 2
4 5 4 4 3 3 3 3 2 2 3 3 3 2 2 3 4 5 5 4 4 4 5 5 4 3 3 2 2 2 2 2 2 2 2 2 2 1 1 2 2 2 2 2
2 2 2 2 2 2 2 2 2 2 3 3 2 3 3 4 4 4 4 4 4 5 6 5 6 3 3 3 3 2 2 2 2 2 2 3 2 2 2 2 2 2 2 2
2 2 1 1 1 1 1 2 2 2 3 2 3 3 4 4 4 4 4 3 4 4 5 5 4 3 3 3 3 2 2 2 2 2 2 1 1 2 2 2 2 2 2 2
2 2 2 1 2 2 2 2 2 3 3 3 2 3 4 5 4 3 3 4 5 5 4 6 3 3 3 3 3 2 1 1 2 2 2 2 2 2 2 2 2 2 2 2
2 2 2 2 2 3 3 2 2 3 3 3 3 3 4 4 4 4 4 4 4 6 4 3 3 4 4 4 2 2 2 2 2 2 2 2 2 2 2 2 2 2 2 2
2 2 2 2 2 3 3 3 2 2 3 3 4 4 4 4 3 3 4 4 4 6 4 3 5 7 7 3 1 2 2 2 2 2 2 2 2 2 2 2 2 2 2 2
2 2 2 2 1 2 3 4 3 3 3 3 3 3 3 3 3 3 3 6 7 7 3 5 7 7 6 2 2 2 2 2 3 3 3 2 2 2 2 3 3 2 2 3
2 2 2 2 2 2 3 3 3 3 3 3 4 4 3 3 3 4 4 4 6 6 4 5 7 7 4 2 2 2 2 3 3 3 2 2 2 2 3 3 3 3 3 3
2 2 2 2 2 2 2 2 2 3 3 4 4 3 3 3 3 3 3 4 5 6 4 3 3 4 2 2 3 3 3 3 4 3 2 2 3 3 3 3 4 3 3 3
2 1 2 2 2 2 2 2 3 3 3 4 4 4 3 3 3 3 4 3 3 3 3 3 3 3 3 3 3 3 3 3 3 3 3 2 2 3 3 4 3 3 3 4
Wind_Direction
256 263 248 250 251 229 217 222 231 257 260 272 283 283 288 295 304 314 313 313 308 308 312 314 320 321 317 314 315 313 309 298 275 274 268 258 259 259 262 255 263 261 262 254
277 263 248 264 256 236 235 239 244 266 273 272 289 294 298 300 306 302 304 300 303 310 312 309 311 313 316 315 310 312 301 293 291 289 280 263 255 251 255 262 259 258 251 240
275 299 318 274 242 216 227 223 210 237 258 295 310 301 290 289 297 298 304 306 307 307 304 304 303 300 295 292 303 311 302 298 304 301 278 266 265 267 264 265 269 270 255 238
280 355 250 247 217 205 230 243 228 252 277 280 280 296 289 284 284 300 309 314 314 313 313 310 303 303 303 310 314 307 303 302 306 304 289 268 252 255 261 261 258 260 269 259
211 262 275 283 241 196 215 268 235 244 270 292 319 333 309 298 294 290 298 299 297 300 304 313 316 312 321 329 330 327 319 308 300 293 286 272 254 247 249 250 259 258 263 253
187 228 251 258 260 230 129 282 266 235 259 270 354 317 288 309 321 312 315 315 315 320 327 328 324 329 333 326 328 320 312 307 305 295 284 277 269 261 257 250 257 278 291 282
209 235 263 263 256 103 175 266 298 258 262 245 239 249 275 305 316 318 322 321 328 335 333 323 326 337 333 327 314 306 309 314 320 316 295 275 262 270 260 257 281 280 289 295
186 218 254 187 127 185 234 293 296 276 270 268 271 280 286 295 306 318 325 327 333 334 327 326 333 339 329 318 310 313 318 323 324 319 309 310 285 282 273 222 231 275 289 301
199 218 252 173 204 231 242 271 275 279 285 275 278 277 284 292 296 301 308 316 325 324 323 327 332 331 311 307 315 319 324 323 321 318 316 317 312 287 280 271 244 271 271 283
256 262 261 244 248 270 263 261 275 275 270 262 272 278 284 289 298 306 311 314 320 324 324 321 322 319 301 304 313 317 315 315 313 312 312 319 312 299 286 256 251 263 271 278
255 274 304 270 245 257 272 282 291 297 283 266 261 274 274 283 293 300 308 315 319 315 308 307 314 315 313 310 309 310 308 304 306 303 302 312 305 288 275 259 252 254 252 252
240 236 233 266 270 248 252 266 271 282 297 295 266 267 276 282 288 295 302 310 313 310 306 307 311 312 314 313 309 300 301 302 299 297 296 299 300 316 312 296 301 291 285 282
247 257 246 270 280 249 246 263 267 266 266 280 285 272 272 283 293 301 306 308 303 302 301 305 311 314 317 320 318 302 288 291 289 291 289 292 292 292 309 325 321 317 311 305
261 271 278 272 274 275 270 275 277 290 287 288 292 297 293 296 305 306 300 297 300 303 306 307 311 312 315 320 317 307 294 292 296 286 287 286 282 284 289 299 313 320 323 323
264 256 254 271 284 298 298 307 316 306 310 316 314 309 302 298 297 298 301 304 310 311 311 311 309 308 315 313 311 304 300 296 291 293 290 288 290 291 288 283 285 303 322 324
287 287 276 278 281 292 304 290 282 286 293 298 302 300 296 292 294 300 306 310 306 303 304 305 300 301 305 304 303 302 300 310 313 301 300 305 305 298 295 295 300 308 310 310
268 279 281 283 279 278 268 262 260 272 283 286 286 293 302 311 313 311 309 307 295 288 295 297 292 296 296 293 288 290 295 302 311 311 300 291 291 288 285 288 292 295 303 317
237 241 246 250 256 262 273 279 279 279 279 284 294 305 310 303 295 298 304 311 313 308 305 300 296 291 289 288 277 275 276 282 289 290 288 282 282 282 284 284 282 284 301 311
273 267 265 274 266 251 256 268 284 291 297 300 298 295 291 289 290 294 302 310 312 309 310 309 310 308 288 289 292 271 271 277 281 289 292 298 305 303 292 284 281 279 283 294
322 319 317 328 340 310 287 299 306 306 306 304 301 304 305 302 299 299 299 291 283 282 293 305 309 305 295 283 284 273 267 273 280 288 292 291 289 288 289 293 291 287 285 284
320 322 324 328 325 322 308 303 301 301 307 310 303 298 298 301 302 300 300 299 301 301 301 305 308 300 298 300 295 283 271 271 275 278 283 284 284 282 283 285 286 288 288 290
300 300 301 308 310 310 312 310 302 303 311 314 314 310 308 308 310 305 286 280 298 312 318 308 305 307 309 307 297 286 281 278 276 274 273 272 272 275 277 281 282 286 286 283
289 284 289 293 290 295 311 316 310 306 305 305 308 307 303 299 302 303 304 303 303 308 314 302 306 311 316 319 309 294 291 284 279 276 272 269 267 267 270 276 279 283 283 283
299 303 302 306 314 315 310 312 314 311 304 301 301 301 303 306 304 292 288 304 311 311 309 307 313 316 323 326 305 292 283 278 273 270 271 271 268 264 264 268 272 273 273 274
300 300 302 308 303 294 297 308 315 315 314 310 308 306 303 294 292 300 304 304 307 313 313 313 318 324 328 312 300 291 283 277 272 269 265 272 274 269 266 266 267 269 270 270
299 294 286 283 284 291 297 301 303 303 306 309 309 308 306 304 298 300 305 305 305 314 317 312 315 321 318 304 296 293 289 291 298 294 281 277 275 273 272 272 271 269 268 268
308 306 307 308 307 300 295 291 290 292 292 291 297 303 306 309 309 309 308 309 310 311 310 309 308 304 300 296 293 290 288 285 283 281 278 274 271 269 269 270 272 273 272 269